Volver al catálogo

AETHER-5

ActivoComunicacionesSSO
NORAD 67376·PAYLOAD·🇨🇦 Canada

Lanzado Jan 11, 2026 desde Vandenberg Space Force Base

Loading…

Próximos Pases (próximas 24 horas)

TLE

ActualizadoSource: Space-Track

Época: Sep 14, 2026, 10:10 UTC

1 67376U 26004P   26257.42368855  .00000375  00000-0  49269-4 0  9993
2 67376  97.8106 254.3540 0000558 168.0670 192.0559 14.85805012 36544

Sigue AETHER-5 en tiempo real con AllMySat

Download on the App Store